Regional Weather Roundup
Issued by NWS

Home | Current Version | Previous Version | Graphics & Text | Print | Product List | Glossary On
Versions: 1 2 3 4 5 6 7 8 9 10 11 12 13 14 15 16 17 18 19 20 21 22 23 24 25 26 27 28 29 30 31 32 33 34 35 36 37 38 39 40 41 42 43 44 45 46 47 48 49 50
000
ASUS43 KLSX 300010
RWRMO

WEATHER SUMMARY FOR MISSOURI
NATIONAL WEATHER SERVICE SPRINGFIELD MO
700 PM CDT SUN MAY 29 2016

NOTE: "FAIR" INDICATES FEW OR NO CLOUDS BELOW 12,000 FEET WITH NO
       SIGNIFICANT WEATHER AND/OR OBSTRUCTIONS TO VISIBILITY.
       CURRENT SKY AND/OR WEATHER CONDITIONS ARE NOT AVAILABLE FOR
       CHILLICOTHE AND FARMINGTON.

MOZ001>031-035>038-043-044-053-054-300100-
...NORTHERN AND WESTERN MISSOURI...

CITY           SKY/WX    TMP DP  RH WIND       PRES   REMARKS
KANSAS CTY INT CLOUDY    77  66  68 S6        30.04S
6HR MIN TEMP:  77; 6HR MAX TEMP:  85;

KANSAS C DTWN  MOSUNNY   81  59  47 S7        30.02S
6HR MIN TEMP:  81; 6HR MAX TEMP:  87;

LEE`S SUMMIT   MOSUNNY   82  57  42 SW9       30.04F
6HR MIN TEMP:  81; 6HR MAX TEMP:  86;

ST JOSEPH      CLOUDY    82  61  48 S10       30.01S
6HR MIN TEMP:  82; 6HR MAX TEMP:  87;

CHILLICOTHE      N/A     81  68  64 CALM      30.02F
6HR MIN TEMP:  81; 6HR MAX TEMP:  87;

KIRKSVILLE     MOSUNNY   82  63  52 VRB3      30.03F
6HR MIN TEMP:  80; 6HR MAX TEMP:  84;


$$
MOZ066>068-077>081-088>096-101>105-300100-
...SOUTHWEST MISSOURI...

CITY           SKY/WX    TMP DP  RH WIND       PRES   REMARKS
SPRINGFIELD    CLOUDY    82  62  50 NE6       30.07F
6HR MIN TEMP:  80; 6HR MAX TEMP:  85;

JOPLIN         CLOUDY    80  65  59 CALM      30.06S
6HR MIN TEMP:  79; 6HR MAX TEMP:  87;

BRANSON        PTSUNNY   77  64  65 SE5       30.09F

$$
MOZ032>034-039>042-045>050-055>058-069>072-300100-
...CENTRAL MISSOURI...

CITY           SKY/WX    TMP DP  RH WIND       PRES   REMARKS
COLUMBIA       CLOUDY    83  60  45 SW5       30.05F
6HR MIN TEMP:  81; 6HR MAX TEMP:  86;

JEFFERSON CITY SUNNY     82  60  47 S3        30.04F
6HR MIN TEMP:  82; 6HR MAX TEMP:  87;

ROLLA          CLOUDY    80  59  48 CALM      30.06F
6HR MIN TEMP:  79; 6HR MAX TEMP:  83;

SEDALIA        CLOUDY    82  63  52 S7        30.05F
6HR MIN TEMP:  82; 6HR MAX TEMP:  86;

WHITEMAN AFB   CLOUDY    82  61  47 SW3       30.04F
WARRENSBURG    MOSUNNY   82  59  44 CALM      30.04R

$$
MOZ051-052-059>065-300100-
...EAST CENTRAL MISSOURI...

CITY           SKY/WX    TMP DP  RH WIND       PRES   REMARKS
ST LOUIS INTL  PTSUNNY   83  58  42 W5        30.05S
6HR MIN TEMP:  83; 6HR MAX TEMP:  88;

SPIRIT OF STL  MOSUNNY   83  61  47 W6        30.03S
6HR MIN TEMP:  83; 6HR MAX TEMP:  87;

ST CHARLES     SUNNY     83  60  45 NW7       30.03S
6HR MIN TEMP:  83; 6HR MAX TEMP:  87;


$$
MOZ072>076-082>087-097>100-106>115-300100-
...SOUTH CENTRAL AND SOUTHEAST MISSOURI...

CITY           SKY/WX    TMP DP  RH WIND       PRES   REMARKS
CAPE GIRARDEAU MOSUNNY   82  63  52 N6        30.04S
6HR MIN TEMP:  82; 6HR MAX TEMP:  87;

FARMINGTON     PTSUNNY   79  63  57 W3        30.09S
6HR MIN TEMP:  79; 6HR MAX TEMP:  83;

POPLAR BLUFF   PTSUNNY   81  65  58 NW6       30.04F
6HR MIN TEMP:  81; 6HR MAX TEMP:  87;

WEST PLAINS    MOSUNNY   82  59  45 CALM      30.10F
6HR MIN TEMP:  80; 6HR MAX TEMP:  83;


$$




USA.gov is the U.S. government's official web portal to all federal, state and local government web resources and services.